This is the latest recevied weather packets stored in our database for station/object OH2HCY. If no packets are shown the sender has not sent any weather packets the latest 10 day(s).
| Time | Temp. | Humidity | Pressure | Rain* | Wind** | Luminosity | Snow |
|---|---|---|---|---|---|---|---|
| 1777477925 | 8.89° C | 27% | 1020.4 hPa | - | - | - | - |
| 1777477435 | 9.44° C | 26% | 1020.4 hPa | - | - | - | - |
| 1777476884 | 9.44° C | 26% | 1020.4 hPa | - | - | - | - |
| 1777475224 | 8.89° C | 28% | 1020.7 hPa | - | - | - | - |
| 1777474155 | 8.89° C | 28% | 1020.8 hPa | - | - | - | - |
| 1777473640 | 8.89° C | 28% | 1020.8 hPa | - | - | - | - |
| 1777473120 | 8.89° C | 29% | 1020.8 hPa | - | - | - | - |
| 1777471040 | 8.89° C | 29% | 1021.1 hPa | - | - | - | - |
| 1777470470 | 8.89° C | 29% | 1021.2 hPa | - | - | - | - |
| 1777469965 | 8.89° C | 29% | 1021.3 hPa | - | - | - | - |
| 1777469420 | 8.89° C | 29% | 1021.5 hPa | - | - | - | - |
| 1777468927 | 8.33° C | 30% | 1021.4 hPa | - | - | - | - |
| 1777468387 | 8.89° C | 30% | 1021.6 hPa | - | - | - | - |
| 1777466280 | 8.33° C | 30% | 1021.8 hPa | - | - | - | - |
| 1777465755 | 8.33° C | 31% | 1021.8 hPa | - | - | - | - |
| 1777465205 | 7.78° C | 31% | 1022.1 hPa | - | - | - | - |
| 1777464125 | 7.78° C | 32% | 1022.3 hPa | - | - | - | - |
| 1777463597 | 7.22° C | 32% | 1022.3 hPa | - | - | - | - |
| 1777463075 | 7.78° C | 32% | 1022.2 hPa | - | - | - | - |
| 1777462545 | 7.22° C | 34% | 1022.5 hPa | - | - | - | - |
| 1777462003 | 6.67° C | 34% | 1022.5 hPa | - | - | - | - |
| 1777461471 | 7.78° C | 34% | 1022.5 hPa | - | - | - | - |
| 1777460958 | 7.22° C | 34% | 1022.5 hPa | - | - | - | - |
| 1777459285 | 7.22° C | 34% | 1022.6 hPa | - | - | - | - |
| 1777458740 | 6.67° C | 34% | 1022.8 hPa | - | - | - | - |
* Rain since midnight (hover to see other rain measurements)
** Current wind speed in m/s (hover to see current wind gust speed)